,,PA_Meas_PMT16A,,PR_Meas_QMR101_102,,RH_Meas_QMH101,,SR_Meas_QMS101,,TA_Meas_QMH101,,GenWind,,GenWind,
time,status,PA,status,PR,status,RH,status,SR,status,TA,status,DirAvg,status,SpdAvg,
2010-12-16, 00:00:05,VALID,915.706,VALID,0,VALID,93.6384,VALID,0,VALID,20.0928,VALID,3,VALID,0.0308594,
2010-12-16, 00:01:05,VALID,915.708,VALID,0,VALID,93.7223,VALID,0,VALID,20.0733,VALID,3,VALID,0,
2010-12-16, 00:02:05,VALID,915.701,VALID,0,VALID,93.7756,VALID,0,VALID,20.0944,VALID,3,VALID,0,
2010-12-16, 00:03:05,VALID,915.704,VALID,0,VALID,93.7604,VALID,0,VALID,20.0538,VALID,4,VALID,0.105469,
2010-12-16, 00:04:05,VALID,915.724,VALID,0,VALID,93.8214,VALID,0,VALID,19.9938,VALID,3,VALID,0.417188,
2010-12-16, 00:05:05,VALID,915.732,VALID,0,VALID,93.8824,VALID,0,VALID,19.9938,VALID,3,VALID,0.378906,
2010-12-16, 00:06:05,VALID,915.743,VALID,0,VALID,93.9738,VALID,0,VALID,19.9953,VALID,3,VALID,0.45,
2010-12-16, 00:07:05,VALID,915.701,VALID,0,VALID,93.9129,VALID,0,VALID,20.0148,VALID,3,VALID,0.365625,
2010-12-16, 00:08:05,VALID,915.678,VALID,0,VALID,93.9129,VALID,0,VALID,20.0148,VALID,3,VALID,0.586719,
2010-12-16, 00:09:05,VALID,915.649,VALID,0,VALID,93.8976,VALID,0,VALID,19.9953,VALID,3,VALID,0.550391,
2010-12-16, 00:10:05,VALID,915.62,VALID,0,VALID,93.9738,VALID,0,VALID,19.9548,VALID,3,VALID,0.545313,
2010-12-16, 00:11:05,VALID,915.593,VALID,0,VALID,94.0653,VALID,0,VALID,19.9758,VALID,3,VALID,0.372656,
2010-12-16, 00:12:05,VALID,915.615,VALID,0,VALID,94.0043,VALID,0,VALID,19.9953,VALID,3,VALID,0.197656,
2010-12-16, 00:13:05,VALID,915.604,VALID,0,VALID,93.9129,VALID,0,VALID,19.9938,VALID,3,VALID,0.138281,
2010-12-16, 00:14:05,VALID,915.594,VALID,0,VALID,93.829,VALID,0,VALID,20.0343,VALID,3,VALID,0,
2010-12-16, 00:15:05,VALID,915.625,VALID,0,VALID,93.7833,VALID,0,VALID,20.0538,VALID,3,VALID,0,
2010-12-16, 00:16:05,VALID,915.572,VALID,0,VALID,93.7223,VALID,0,VALID,20.0718,VALID,3,VALID,0.0617188,
2010-12-16, 00:17:05,VALID,915.55,VALID,0,VALID,93.5774,VALID,0,VALID,20.0718,VALID,3,VALID,0.0304688,
2010-12-16, 00:18:05,VALID,915.611,VALID,0,VALID,93.3564,VALID,0,VALID,20.0733,VALID,3,VALID,0.138281,
2010-12-16, 00:19:05,VALID,915.608,VALID,0,VALID,93.5241,VALID,0,VALID,20.0328,VALID,3,VALID,0.60625,
2010-12-16, 00:20:05,VALID,915.631,VALID,0,VALID,93.5469,VALID,0,VALID,20.0133,VALID,3,VALID,0.602344,
2010-12-16, 00:21:05,VALID,915.587,VALID,0,VALID,93.5012,VALID,0,VALID,20.0718,VALID,4,VALID,0.73125,
2010-12-16, 00:22:05,VALID,915.596,VALID,0,VALID,93.4859,VALID,0,VALID,20.0733,VALID,346,VALID,0.888672,
2010-12-16, 00:23:05,VALID,915.588,VALID,0,VALID,93.4859,VALID,0,VALID,20.0328,VALID,358,VALID,1.16797,
2010-12-16, 00:24:05,VALID,915.597,VALID,0,VALID,93.3868,VALID,0,VALID,20.0928,VALID,358,VALID,0.941406,
2010-12-16, 00:25:05,VALID,915.573,VALID,0,VALID,93.2649,VALID,0,VALID,20.1513,VALID,358,VALID,0.847266,
2010-12-16, 00:26:05,VALID,915.566,VALID,0,VALID,93.1124,VALID,0,VALID,20.1693,VALID,358,VALID,0.568359,
2010-12-16, 00:27:05,VALID,915.568,VALID,0,VALID,93.0133,VALID,0,VALID,20.2098,VALID,358,VALID,0.269531,
2010-12-16, 00:28:05,VALID,915.599,VALID,0,VALID,92.8989,VALID,0,VALID,20.2083,VALID,358,VALID,0.499609,
2010-12-16, 00:29:05,VALID,915.581,VALID,0,VALID,92.6779,VALID,0,VALID,20.2684,VALID,358,VALID,0.658984,
2010-12-16, 00:30:05,VALID,915.612,VALID,0,VALID,92.594,VALID,0,VALID,20.2668,VALID,358,VALID,0.5375,
2010-12-16, 00:31:05,VALID,915.64,VALID,0,VALID,92.8608,VALID,0,VALID,20.2879,VALID,358,VALID,0.896094,
2010-12-16, 00:32:05,VALID,915.631,VALID,0,VALID,93.2115,VALID,0,VALID,20.2278,VALID,358,VALID,0.744922,
2010-12-16, 00:33:05,VALID,915.602,VALID,0,VALID,93.6079,VALID,0,VALID,20.1888,VALID,358,VALID,0.73125,
2010-12-16, 00:34:05,VALID,915.588,VALID,0,VALID,93.9281,VALID,0,VALID,20.1708,VALID,358,VALID,0.453906,
2010-12-16, 00:35:05,VALID,915.622,VALID,0,VALID,94.2026,VALID,0,VALID,20.1318,VALID,358,VALID,0.603906,
2010-12-16, 00:36:05,VALID,915.561,VALID,0,VALID,94.2102,VALID,0,VALID,20.0913,VALID,358,VALID,0.614062,
2010-12-16, 00:37:05,VALID,915.514,VALID,0,VALID,93.8976,VALID,0,VALID,20.0928,VALID,339,VALID,0.836328,
2010-12-16, 00:38:05,VALID,915.515,VALID,0,VALID,93.6155,VALID,0,VALID,20.1108,VALID,339,VALID,0.670313,
2010-12-16, 00:39:05,VALID,915.529,VALID,0,VALID,93.4555,VALID,0,VALID,20.2098,VALID,339,VALID,0.391797,
2010-12-16, 00:40:05,VALID,915.509,VALID,0,VALID,93.4707,VALID,0.107441,VALID,20.1693,VALID,339,VALID,0.467187,
2010-12-16, 00:41:05,VALID,915.502,VALID,0,VALID,93.4859,VALID,0,VALID,20.1693,VALID,339,VALID,0.378906,
2010-12-16, 00:42:05,VALID,915.488,VALID,0,VALID,93.5698,VALID,0,VALID,20.1903,VALID,339,VALID,0.7,
2010-12-16, 00:43:05,VALID,915.495,VALID,0,VALID,93.6918,VALID,0,VALID,20.1498,VALID,339,VALID,0.428516,
2010-12-16, 00:44:05,VALID,915.475,VALID,0,VALID,93.9129,VALID,0,VALID,20.1513,VALID,339,VALID,0.235938,
2010-12-16, 00:45:05,VALID,915.463,VALID,0,VALID,94.1111,VALID,0,VALID,20.0913,VALID,339,VALID,0.226953,
2010-12-16, 00:46:05,VALID,915.387,VALID,0,VALID,94.3474,VALID,0,VALID,20.1108,VALID,339,VALID,0.0992187,
2010-12-16, 00:47:05,VALID,915.44,VALID,0,VALID,94.5151,VALID,0,VALID,20.0913,VALID,339,VALID,0.0195313,
2010-12-16, 00:48:05,VALID,915.419,VALID,0,VALID,94.6676,VALID,0,VALID,20.0928,VALID,339,VALID,0.283594,
2010-12-16, 00:49:05,VALID,915.401,VALID,0,VALID,94.7667,VALID,0,VALID,20.1123,VALID,339,VALID,0.295703,
2010-12-16, 00:50:05,VALID,915.356,VALID,0,VALID,94.8124,VALID,0,VALID,20.0928,VALID,339,VALID,0.346875,
2010-12-16, 00:51:05,VALID,915.367,VALID,0,VALID,94.7743,VALID,0,VALID,20.0928,VALID,339,VALID,0.485547,
2010-12-16, 00:52:05,VALID,915.359,VALID,0,VALID,94.7133,VALID,0,VALID,20.0148,VALID,339,VALID,0.225781,
2010-12-16, 00:53:05,VALID,915.345,VALID,0,VALID,94.6752,VALID,0,VALID,19.9953,VALID,339,VALID,0.283594,
2010-12-16, 00:54:05,VALID,915.366,VALID,0,VALID,94.7743,VALID,0,VALID,19.9563,VALID,339,VALID,0.462109,
2010-12-16, 00:55:05,VALID,915.346,VALID,0,VALID,94.8124,VALID,0,VALID,19.9158,VALID,339,VALID,0.177734,
2010-12-16, 00:56:05,VALID,915.309,VALID,0,VALID,94.7667,VALID,0,VALID,19.8963,VALID,339,VALID,0.00234375,
2010-12-16, 00:57:04,VALID,915.312,VALID,0,VALID,94.7514,VALID,0,VALID,19.8783,VALID,339,VALID,0.01875,
2010-12-16, 00:58:04,VALID,915.258,VALID,0,VALID,94.8048,VALID,0,VALID,19.8783,VALID,339,VALID,0.218359,
2010-12-16, 00:59:04,VALID,915.242,VALID,0,VALID,94.8734,VALID,0.107441,VALID,19.8183,VALID,339,VALID,0.557813,
2010-12-16, 01:00:04,VALID,915.241,VALID,0,VALID,94.9573,VALID,0,VALID,19.8183,VALID,339,VALID,0.152734,
2010-12-16, 01:01:04,VALID,915.233,VALID,0,VALID,94.942,VALID,0.107441,VALID,19.7988,VALID,339,VALID,0.475,
2010-12-16, 01:02:04,VALID,915.232,VALID,0,VALID,94.9954,VALID,0,VALID,19.8393,VALID,339,VALID,0.285156,
2010-12-16, 01:03:04,VALID,915.208,VALID,0,VALID,94.9954,VALID,0,VALID,19.8573,VALID,339,VALID,0,
2010-12-16, 01:04:04,VALID,915.217,VALID,0,VALID,94.9192,VALID,0,VALID,19.8573,VALID,339,VALID,0,
2010-12-16, 01:05:04,VALID,915.209,VALID,0,VALID,94.9268,VALID,0,VALID,19.8768,VALID,339,VALID,0,
2010-12-16, 01:06:04,VALID,915.216,VALID,0,VALID,95.0335,VALID,0,VALID,19.8768,VALID,339,VALID,0.301953,
2010-12-16, 01:07:04,VALID,915.169,VALID,0,VALID,95.1097,VALID,0,VALID,19.8963,VALID,339,VALID,0.127734,
2010-12-16, 01:08:04,VALID,915.16,VALID,0,VALID,95.1707,VALID,0.107441,VALID,19.8963,VALID,339,VALID,0,
2010-12-16, 01:09:04,VALID,915.133,VALID,0,VALID,95.2088,VALID,0,VALID,19.9368,VALID,339,VALID,0,
2010-12-16, 01:10:04,VALID,915.127,VALID,0,VALID,95.2241,VALID,0,VALID,19.9158,VALID,339,VALID,0,
2010-12-16, 01:11:04,VALID,915.123,VALID,0,VALID,95.2775,VALID,0,VALID,19.9368,VALID,339,VALID,0,
2010-12-16, 01:12:04,VALID,915.102,VALID,0,VALID,95.2698,VALID,0,VALID,19.9353,VALID,339,VALID,0,
2010-12-16, 01:13:04,VALID,915.095,VALID,0,VALID,95.2241,VALID,0,VALID,19.9158,VALID,339,VALID,0,
2010-12-16, 01:14:04,VALID,915.047,VALID,0,VALID,95.186,VALID,0,VALID,19.9158,VALID,339,VALID,0.197266,
2010-12-16, 01:15:04,VALID,915.027,VALID,0,VALID,95.0335,VALID,0,VALID,19.9173,VALID,339,VALID,0.236328,
2010-12-16, 01:16:04,VALID,915.012,VALID,0,VALID,94.9268,VALID,0,VALID,19.8588,VALID,339,VALID,0.500781,
2010-12-16, 01:17:04,VALID,914.993,VALID,0,VALID,94.9344,VALID,0,VALID,19.8588,VALID,339,VALID,0.650391,
2010-12-16, 01:18:04,VALID,914.96,VALID,0,VALID,95.0106,VALID,0.107441,VALID,19.8183,VALID,339,VALID,0.189453,
2010-12-16, 01:19:04,VALID,914.977,VALID,0,VALID,95.0488,VALID,0,VALID,19.8198,VALID,339,VALID,0.186719,
2010-12-16, 01:20:04,VALID,914.906,VALID,0,VALID,94.9649,VALID,0.107441,VALID,19.8198,VALID,339,VALID,0.405859,
2010-12-16, 01:21:04,VALID,914.903,VALID,0,VALID,94.8582,VALID,0,VALID,19.7793,VALID,339,VALID,0.366406,
2010-12-16, 01:22:04,VALID,914.829,VALID,0,VALID,94.8582,VALID,0,VALID,19.7598,VALID,339,VALID,0.889453,
2010-12-16, 01:23:04,VALID,914.808,VALID,0,VALID,94.7591,VALID,0,VALID,19.7598,VALID,339,VALID,0.849609,
2010-12-16, 01:24:04,VALID,914.771,VALID,0,VALID,94.6523,VALID,0,VALID,19.7793,VALID,339,VALID,0.785937,
2010-12-16, 01:25:04,VALID,914.738,VALID,0,VALID,94.4999,VALID,0,VALID,19.7793,VALID,339,VALID,0.759766,
2010-12-16, 01:26:04,VALID,914.694,VALID,0,VALID,94.477,VALID,0,VALID,19.7808,VALID,339,VALID,0.529688,
2010-12-16, 01:27:04,VALID,914.682,VALID,0,VALID,94.4313,VALID,0,VALID,19.7598,VALID,339,VALID,0.806641,
2010-12-16, 01:28:04,VALID,914.656,VALID,0,VALID,94.4846,VALID,0,VALID,19.7793,VALID,339,VALID,1.23086,
2010-12-16, 01:29:04,VALID,914.687,VALID,0,VALID,94.5304,VALID,0,VALID,19.8183,VALID,360,VALID,0.992969,
2010-12-16, 01:30:04,VALID,914.675,VALID,0,VALID,94.4008,VALID,0,VALID,19.8393,VALID,360,VALID,0.495703,
2010-12-16, 01:31:04,VALID,914.644,VALID,0,VALID,94.2483,VALID,0,VALID,19.8588,VALID,360,VALID,0.584375,
2010-12-16, 01:32:04,VALID,914.58,VALID,0,VALID,94.2407,VALID,0,VALID,19.8783,VALID,360,VALID,0.721094,
2010-12-16, 01:33:04,VALID,914.54,VALID,0,VALID,94.233,VALID,0,VALID,19.8978,VALID,360,VALID,0.639844,
2010-12-16, 01:34:04,VALID,914.57,VALID,0,VALID,93.9586,VALID,0,VALID,19.8978,VALID,360,VALID,0.302734,
2010-12-16, 01:35:04,VALID,914.504,VALID,0,VALID,94.233,VALID,0,VALID,19.9383,VALID,360,VALID,0.184766,
2010-12-16, 01:36:04,VALID,914.507,VALID,0,VALID,94.3703,VALID,0,VALID,19.9188,VALID,360,VALID,0,
2010-12-16, 01:37:04,VALID,914.477,VALID,0,VALID,94.4999,VALID,0,VALID,19.9188,VALID,360,VALID,0,
2010-12-16, 01:38:04,VALID,914.46,VALID,0,VALID,94.5304,VALID,0,VALID,19.8783,VALID,360,VALID,0,
2010-12-16, 01:39:04,VALID,914.414,VALID,0,VALID,94.4999,VALID,0,VALID,19.8588,VALID,360,VALID,0,
2010-12-16, 01:40:04,VALID,914.398,VALID,0,VALID,94.1187,VALID,0,VALID,19.7808,VALID,360,VALID,0.0898438,
2010-12-16, 01:41:04,VALID,914.38,VALID,0,VALID,94.3398,VALID,0,VALID,19.7418,VALID,360,VALID,0.323438,
2010-12-16, 01:42:04,VALID,914.385,VALID,0,VALID,94.3703,VALID,0,VALID,19.7238,VALID,360,VALID,0.541797,
2010-12-16, 01:43:04,VALID,914.422,VALID,0,VALID,94.5075,VALID,0,VALID,19.6638,VALID,360,VALID,0.154687,
2010-12-16, 01:44:04,VALID,914.396,VALID,0,VALID,94.7667,VALID,0,VALID,19.6248,VALID,360,VALID,0,
2010-12-16, 01:45:04,VALID,914.361,VALID,0,VALID,94.9496,VALID,0,VALID,19.6248,VALID,360,VALID,0.552344,
2010-12-16, 01:46:04,VALID,914.339,VALID,0,VALID,95.0564,VALID,0,VALID,19.5453,VALID,360,VALID,0.623438,
2010-12-16, 01:47:04,VALID,914.349,VALID,0,VALID,95.1631,VALID,0,VALID,19.5063,VALID,360,VALID,0.832422,
2010-12-16, 01:48:04,VALID,914.333,VALID,0,VALID,95.3232,VALID,0,VALID,19.5078,VALID,360,VALID,0.826953,
2010-12-16, 01:49:04,VALID,914.337,VALID,0,VALID,95.4909,VALID,0,VALID,19.4883,VALID,360,VALID,0.754687,
2010-12-16, 01:50:04,VALID,914.32,VALID,0,VALID,95.6891,VALID,0,VALID,19.4868,VALID,360,VALID,0.683203,
2010-12-16, 01:51:04,VALID,914.326,VALID,0,VALID,95.8416,VALID,0,VALID,19.5078,VALID,360,VALID,0.860156,
2010-12-16, 01:52:04,VALID,914.275,VALID,0,VALID,95.9483,VALID,0,VALID,19.5273,VALID,360,VALID,0.800391,
2010-12-16, 01:53:04,VALID,914.236,VALID,0,VALID,96.055,VALID,0,VALID,19.5663,VALID,360,VALID,1.04062,
2010-12-16, 01:54:04,VALID,914.195,VALID,0,VALID,96.1389,VALID,0,VALID,19.5663,VALID,360,VALID,1.15,
2010-12-16, 01:55:04,VALID,914.145,VALID,0,VALID,96.2228,VALID,0,VALID,19.6053,VALID,360,VALID,1.24766,
2010-12-16, 01:56:04,VALID,914.149,VALID,0,VALID,96.2761,VALID,0,VALID,19.6233,VALID,360,VALID,0.532422,
2010-12-16, 01:57:04,VALID,914.081,VALID,0,VALID,96.2837,VALID,0,VALID,19.6833,VALID,360,VALID,0.751953,
2010-12-16, 01:58:04,VALID,914.066,VALID,0,VALID,96.2914,VALID,0,VALID,19.6833,VALID,360,VALID,0.651172,
2010-12-16, 01:59:04,VALID,914.039,VALID,0,VALID,96.2761,VALID,0,VALID,19.6833,VALID,360,VALID,0.887109,
2010-12-16, 02:00:04,VALID,914.023,VALID,0,VALID,96.2533,VALID,0,VALID,19.7223,VALID,360,VALID,0.570703,
2010-12-16, 02:01:04,VALID,914.004,VALID,0,VALID,96.238,VALID,0,VALID,19.7013,VALID,360,VALID,0.668359,
2010-12-16, 02:02:04,VALID,914.022,VALID,0,VALID,96.2304,VALID,0.107441,VALID,19.7208,VALID,360,VALID,0.797266,
2010-12-16, 02:03:04,VALID,913.992,VALID,0,VALID,96.238,VALID,0,VALID,19.7418,VALID,360,VALID,0.658203,
2010-12-16, 02:04:04,VALID,913.993,VALID,0,VALID,96.2304,VALID,0,VALID,19.7418,VALID,360,VALID,0.884766,
2010-12-16, 02:05:04,VALID,913.953,VALID,0,VALID,96.2151,VALID,0,VALID,19.7403,VALID,360,VALID,0.960156,
2010-12-16, 02:06:04,VALID,913.963,VALID,0,VALID,96.2151,VALID,0.107441,VALID,19.7403,VALID,360,VALID,0.826953,
2010-12-16, 02:07:04,VALID,913.943,VALID,0,VALID,96.2228,VALID,0,VALID,19.7598,VALID,360,VALID,0.685156,
2010-12-16, 02:08:04,VALID,913.948,VALID,0,VALID,96.1846,VALID,0,VALID,19.7808,VALID,360,VALID,0.752344,
2010-12-16, 02:09:04,VALID,913.931,VALID,0,VALID,96.1923,VALID,0.107441,VALID,19.7598,VALID,360,VALID,0.390234,
2010-12-16, 02:10:04,VALID,913.921,VALID,0,VALID,96.1465,VALID,0,VALID,19.7598,VALID,359,VALID,0.0652344,
2010-12-16, 02:11:04,VALID,913.886,VALID,0,VALID,96.1618,VALID,0,VALID,19.8003,VALID,360,VALID,0.0746094,
2010-12-16, 02:12:04,VALID,913.885,VALID,0,VALID,96.1694,VALID,0,VALID,19.8003,VALID,359,VALID,0.459375,
2010-12-16, 02:13:04,VALID,913.884,VALID,0,VALID,96.116,VALID,0,VALID,19.8003,VALID,360,VALID,0.436328,
2010-12-16, 02:14:04,VALID,913.869,VALID,0,VALID,96.055,VALID,0,VALID,19.7793,VALID,359,VALID,0.843359,
2010-12-16, 02:15:04,VALID,913.903,VALID,0,VALID,96.0474,VALID,0,VALID,19.7988,VALID,359,VALID,0.384766,
2010-12-16, 02:16:04,VALID,913.959,VALID,0,VALID,96.0627,VALID,0,VALID,19.8198,VALID,359,VALID,0.0914062,
2010-12-16, 02:17:04,VALID,914.016,VALID,0,VALID,96.0322,VALID,0,VALID,19.8003,VALID,359,VALID,0.149609,
2010-12-16, 02:18:04,VALID,914.002,VALID,0,VALID,96.0169,VALID,0,VALID,19.8003,VALID,359,VALID,0.611719,
2010-12-16, 02:19:04,VALID,914.018,VALID,0,VALID,95.9864,VALID,0,VALID,19.7793,VALID,359,VALID,0,
2010-12-16, 02:20:04,VALID,914.026,VALID,0,VALID,95.9864,VALID,0,VALID,19.7403,VALID,359,VALID,0.183594,
2010-12-16, 02:21:04,VALID,914.044,VALID,0,VALID,95.9331,VALID,0,VALID,19.7403,VALID,359,VALID,0.143359,
2010-12-16, 02:22:04,VALID,914.007,VALID,0,VALID,95.9788,VALID,0,VALID,19.7598,VALID,274,VALID,0.563281,
2010-12-16, 02:23:04,VALID,914.003,VALID,0,VALID,95.9941,VALID,0,VALID,19.7808,VALID,263,VALID,0.7125,
2010-12-16, 02:24:04,VALID,913.979,VALID,0,VALID,95.9712,VALID,0,VALID,19.7793,VALID,263,VALID,0.601953,
2010-12-16, 02:25:04,VALID,914.023,VALID,0,VALID,95.9636,VALID,0,VALID,19.7988,VALID,263,VALID,0.754297,
2010-12-16, 02:26:04,VALID,913.995,VALID,0,VALID,95.9178,VALID,0,VALID,19.7988,VALID,263,VALID,0.716406,
2010-12-16, 02:27:04,VALID,914.005,VALID,0,VALID,95.9102,VALID,0,VALID,19.8393,VALID,263,VALID,0.578516,
2010-12-16, 02:28:04,VALID,913.969,VALID,0,VALID,95.9254,VALID,0,VALID,19.7988,VALID,263,VALID,0.578125,
2010-12-16, 02:29:04,VALID,913.935,VALID,0,VALID,95.8873,VALID,0.107441,VALID,19.7988,VALID,260,VALID,0.837109,
2010-12-16, 02:30:04,VALID,913.897,VALID,0,VALID,95.9178,VALID,0,VALID,19.8183,VALID,262,VALID,0.420312,
2010-12-16, 02:31:04,VALID,913.864,VALID,0,VALID,95.8797,VALID,0,VALID,19.7988,VALID,262,VALID,0,
2010-12-16, 02:32:04,VALID,913.875,VALID,0,VALID,95.773,VALID,0,VALID,19.7988,VALID,262,VALID,0.602344,
2010-12-16, 02:33:04,VALID,913.86,VALID,0,VALID,95.7806,VALID,0,VALID,19.7793,VALID,262,VALID,0.401953,
2010-12-16, 02:34:04,VALID,913.877,VALID,0,VALID,95.7806,VALID,0,VALID,19.7793,VALID,262,VALID,0,
2010-12-16, 02:35:04,VALID,913.843,VALID,0,VALID,95.7501,VALID,0,VALID,19.7808,VALID,262,VALID,0.507813,
2010-12-16, 02:36:04,VALID,913.797,VALID,0,VALID,95.6739,VALID,0,VALID,19.7208,VALID,262,VALID,1.01055,
2010-12-16, 02:37:04,VALID,913.813,VALID,0,VALID,95.712,VALID,0,VALID,19.7223,VALID,262,VALID,1.16016,
2010-12-16, 02:38:04,VALID,913.814,VALID,0,VALID,95.7577,VALID,0,VALID,19.7223,VALID,19,VALID,1.19609,
2010-12-16, 02:39:04,VALID,913.829,VALID,0,VALID,95.7501,VALID,0,VALID,19.6833,VALID,19,VALID,0.890625,
2010-12-16, 02:40:04,VALID,913.897,VALID,0,VALID,95.8187,VALID,0,VALID,19.6638,VALID,19,VALID,0.548828,
2010-12-16, 02:41:04,VALID,913.909,VALID,0,VALID,95.9026,VALID,0.107441,VALID,19.6443,VALID,19,VALID,0.470703,
2010-12-16, 02:42:04,VALID,913.892,VALID,0,VALID,96.055,VALID,0,VALID,19.6428,VALID,20,VALID,0.891797,
2010-12-16, 02:43:04,VALID,913.909,VALID,0,VALID,96.116,VALID,0,VALID,19.6833,VALID,19,VALID,0.979297,
2010-12-16, 02:44:04,VALID,913.918,VALID,0,VALID,96.1846,VALID,0,VALID,19.6623,VALID,19,VALID,1.19258,
2010-12-16, 02:45:04,VALID,913.921,VALID,0,VALID,96.2228,VALID,0,VALID,19.7013,VALID,19,VALID,1.1625,
2010-12-16, 02:46:04,VALID,913.916,VALID,0,VALID,96.1923,VALID,0,VALID,19.7028,VALID,20,VALID,0.917188,
2010-12-16, 02:47:04,VALID,913.95,VALID,0,VALID,96.2075,VALID,0,VALID,19.6833,VALID,19,VALID,0.822266,
2010-12-16, 02:48:04,VALID,913.948,VALID,0,VALID,96.2304,VALID,0,VALID,19.7028,VALID,19,VALID,0.749609,
2010-12-16, 02:49:04,VALID,913.92,VALID,0,VALID,96.2761,VALID,0,VALID,19.6833,VALID,19,VALID,0.766797,
2010-12-16, 02:50:04,VALID,913.952,VALID,0,VALID,96.299,VALID,0,VALID,19.7028,VALID,19,VALID,0.909375,
2010-12-16, 02:51:04,VALID,913.913,VALID,0,VALID,96.3371,VALID,0,VALID,19.6818,VALID,19,VALID,0.670313,
2010-12-16, 02:52:04,VALID,913.93,VALID,0,VALID,96.3676,VALID,0,VALID,19.7013,VALID,18,VALID,0.303125,
2010-12-16, 02:53:04,VALID,913.926,VALID,0,VALID,96.3829,VALID,0,VALID,19.6818,VALID,17,VALID,1.17266,
2010-12-16, 02:54:04,VALID,913.913,VALID,0,VALID,96.3829,VALID,0,VALID,19.7013,VALID,17,VALID,1.18125,
2010-12-16, 02:55:04,VALID,913.911,VALID,0,VALID,96.4362,VALID,0,VALID,19.7223,VALID,17,VALID,0.979688,
2010-12-16, 02:56:04,VALID,913.927,VALID,0,VALID,96.4743,VALID,0,VALID,19.7208,VALID,17,VALID,0.825781,
2010-12-16, 02:57:04,VALID,913.966,VALID,0,VALID,96.4667,VALID,0,VALID,19.7223,VALID,17,VALID,0.788281,
2010-12-16, 02:58:04,VALID,913.99,VALID,0,VALID,96.4743,VALID,0,VALID,19.7013,VALID,17,VALID,0.633203,
2010-12-16, 02:59:04,VALID,913.973,VALID,0,VALID,96.4972,VALID,0,VALID,19.7223,VALID,17,VALID,0.917578,
2010-12-16, 03:00:04,VALID,913.97,VALID,0,VALID,96.5201,VALID,0,VALID,19.7013,VALID,16,VALID,1.08789,
2010-12-16, 03:01:04,VALID,913.997,VALID,0,VALID,96.5277,VALID,0,VALID,19.7013,VALID,18,VALID,1.50312,
2010-12-16, 03:02:04,VALID,914.023,VALID,0,VALID,96.5506,VALID,0.107441,VALID,19.7208,VALID,11,VALID,1.0293,
2010-12-16, 03:03:04,VALID,914.042,VALID,0,VALID,96.5353,VALID,0,VALID,19.7013,VALID,10,VALID,0.952734,
2010-12-16, 03:04:04,VALID,914.059,VALID,0,VALID,96.5506,VALID,0,VALID,19.7208,VALID,10,VALID,0.938672,
2010-12-16, 03:05:04,VALID,913.995,VALID,0,VALID,96.5811,VALID,0,VALID,19.7418,VALID,10,VALID,0.902344,
2010-12-16, 03:06:04,VALID,914.022,VALID,0,VALID,96.5811,VALID,0,VALID,19.7613,VALID,10,VALID,0.619531,
2010-12-16, 03:07:04,VALID,914.017,VALID,0,VALID,96.5963,VALID,0,VALID,19.7613,VALID,10,VALID,0.804688,
2010-12-16, 03:08:04,VALID,914.003,VALID,0,VALID,96.5811,VALID,0,VALID,19.7613,VALID,350,VALID,1.12617,
2010-12-16, 03:09:04,VALID,914.01,VALID,0,VALID,96.5658,VALID,0,VALID,19.7613,VALID,350,VALID,1.20586,
2010-12-16, 03:10:04,VALID,913.962,VALID,0,VALID,96.5658,VALID,0,VALID,19.7613,VALID,350,VALID,0.807813,
2010-12-16, 03:11:04,VALID,913.955,VALID,0,VALID,96.5963,VALID,0,VALID,19.7403,VALID,350,VALID,1.27305,
2010-12-16, 03:12:04,VALID,913.912,VALID,0,VALID,96.5887,VALID,0,VALID,19.7808,VALID,311,VALID,0.410937,
2010-12-16, 03:13:04,VALID,913.927,VALID,0,VALID,96.5887,VALID,0,VALID,19.7808,VALID,24,VALID,1.13789,
2010-12-16, 03:14:04,VALID,913.959,VALID,0,VALID,96.6192,VALID,0,VALID,19.7808,VALID,317,VALID,0.731641,
2010-12-16, 03:15:04,VALID,913.93,VALID,0,VALID,96.5963,VALID,0,VALID,19.7988,VALID,321,VALID,0.284375,
2010-12-16, 03:16:04,VALID,913.888,VALID,0,VALID,96.5811,VALID,0,VALID,19.8198,VALID,336,VALID,0.500781,
2010-12-16, 03:17:04,VALID,913.876,VALID,0,VALID,96.5811,VALID,0,VALID,19.8183,VALID,40,VALID,0.796484,
2010-12-16, 03:18:04,VALID,913.847,VALID,0,VALID,96.5734,VALID,0.107441,VALID,19.8588,VALID,40,VALID,0.673437,
2010-12-16, 03:19:04,VALID,913.868,VALID,0,VALID,96.4972,VALID,0,VALID,19.8393,VALID,40,VALID,0.679688,
2010-12-16, 03:20:04,VALID,913.804,VALID,0,VALID,96.4743,VALID,0,VALID,19.8393,VALID,40,VALID,0.776953,
2010-12-16, 03:21:04,VALID,913.781,VALID,0,VALID,96.5124,VALID,0,VALID,19.8393,VALID,23,VALID,1.33516,
2010-12-16, 03:22:04,VALID,913.784,VALID,0,VALID,96.4743,VALID,0,VALID,19.8588,VALID,330,VALID,1.50273,
2010-12-16, 03:23:04,VALID,913.8,VALID,0,VALID,96.421,VALID,0,VALID,19.8573,VALID,314,VALID,0.828516,
2010-12-16, 03:24:04,VALID,913.801,VALID,0,VALID,96.3676,VALID,0,VALID,19.8978,VALID,314,VALID,0.483203,
2010-12-16, 03:25:04,VALID,913.824,VALID,0,VALID,96.3142,VALID,0,VALID,19.9173,VALID,315,VALID,0,
2010-12-16, 03:26:04,VALID,913.831,VALID,0,VALID,96.2609,VALID,0,VALID,19.9563,VALID,314,VALID,0.273047,
2010-12-16, 03:27:04,VALID,913.827,VALID,0,VALID,96.2228,VALID,0,VALID,19.9368,VALID,17,VALID,1.04336,
2010-12-16, 03:28:04,VALID,913.839,VALID,0,VALID,96.1541,VALID,0,VALID,19.9353,VALID,17,VALID,0.85,
2010-12-16, 03:29:04,VALID,913.809,VALID,0,VALID,96.116,VALID,0,VALID,19.9158,VALID,10,VALID,0.779297,
2010-12-16, 03:30:04,VALID,913.855,VALID,0,VALID,96.0932,VALID,0,VALID,19.9158,VALID,10,VALID,0.728516,
2010-12-16, 03:31:04,VALID,913.811,VALID,0,VALID,96.1313,VALID,0,VALID,19.9158,VALID,10,VALID,0.915234,
2010-12-16, 03:32:04,VALID,913.843,VALID,0,VALID,96.1618,VALID,0,VALID,19.9368,VALID,10,VALID,0.190625,
2010-12-16, 03:33:04,VALID,913.818,VALID,0,VALID,96.116,VALID,0,VALID,19.9353,VALID,10,VALID,0.963281,
2010-12-16, 03:34:04,VALID,913.854,VALID,0,VALID,96.1236,VALID,0,VALID,19.9368,VALID,10,VALID,0.389453,
2010-12-16, 03:35:04,VALID,913.808,VALID,0,VALID,96.116,VALID,0,VALID,19.9158,VALID,12,VALID,1.29844,
2010-12-16, 03:36:04,VALID,913.814,VALID,0,VALID,96.1389,VALID,0,VALID,19.9563,VALID,30,VALID,1.66641,
2010-12-16, 03:37:04,VALID,913.828,VALID,0,VALID,96.116,VALID,0,VALID,19.9368,VALID,34,VALID,1.02656,
2010-12-16, 03:38:04,VALID,913.858,VALID,0,VALID,96.116,VALID,0,VALID,19.9158,VALID,34,VALID,0.938281,
2010-12-16, 03:39:04,VALID,913.831,VALID,0,VALID,96.1313,VALID,0,VALID,19.9563,VALID,34,VALID,0.182422,
2010-12-16, 03:40:04,VALID,913.921,VALID,0,VALID,96.1541,VALID,0,VALID,19.9758,VALID,34,VALID,0,
2010-12-16, 03:41:04,VALID,913.897,VALID,0,VALID,96.1389,VALID,0,VALID,19.9758,VALID,34,VALID,0.199219,
2010-12-16, 03:42:04,VALID,913.882,VALID,0,VALID,96.1313,VALID,0,VALID,19.9743,VALID,34,VALID,0.493359,
2010-12-16, 03:43:04,VALID,913.892,VALID,0,VALID,96.1541,VALID,0,VALID,19.9548,VALID,34,VALID,0.850781,
2010-12-16, 03:44:04,VALID,913.9,VALID,0,VALID,96.1541,VALID,0,VALID,19.9758,VALID,34,VALID,0.693359,
2010-12-16, 03:45:04,VALID,913.889,VALID,0,VALID,96.1236,VALID,0,VALID,19.9548,VALID,34,VALID,0.722656,
2010-12-16, 03:46:04,VALID,913.897,VALID,0,VALID,96.0932,VALID,0,VALID,19.9548,VALID,34,VALID,1.16953,